Temperature
-0 -0 -0 -1 -1 -1 -1 -1 -1 -2 -2 -2 -2 -2 -2 -3 -3 -3 -3 -3 -3 -4 -4 -4 -4 -4 -4 -5 -5 -5 -5 -5 -5 -4 -4 -4 -4 -3 -3 -3 -3 -3 -2
-1 -1 -1 -1 -1 -1 -2 -2 -2 -2 -2 -3 -3 -3 -3 -3 -3 -4 -4 -4 -4 -4 -4 -4 -4 -5 -5 -5 -5 -5 -5 -5 -5 -5 -5 -4 -4 -4 -4 -4 -3 -3 -3
-1 -2 -2 -2 -2 -2 -2 -2 -3 -3 -3 -3 -3 -4 -4 -4 -4 -4 -4 -4 -5 -5 -5 -5 -5 -5 -5 -6 -6 -6 -6 -6 -6 -6 -5 -5 -5 -5 -4 -4 -4 -4 -4
-2 -2 -2 -2 -2 -2 -3 -3 -3 -3 -4 -4 -4 -4 -4 -4 -5 -5 -5 -5 -5 -5 -5 -5 -5 -6 -6 -6 -6 -6 -6 -6 -6 -6 -6 -6 -5 -5 -5 -5 -5 -5 -5
-3 -3 -3 -3 -3 -3 -3 -3 -4 -4 -4 -4 -5 -5 -5 -5 -5 -5 -6 -6 -6 -6 -6 -6 -6 -6 -6 -6 -7 -7 -7 -7 -7 -7 -6 -6 -6 -6 -6 -6 -6 -6 -5
-3 -3 -3 -3 -4 -4 -4 -4 -4 -5 -5 -5 -5 -5 -5 -5 -6 -6 -6 -6 -6 -7 -6 -6 -7 -7 -7 -7 -7 -7 -7 -7 -7 -7 -7 -7 -7 -7 -7 -7 -7 -7 -6
-4 -4 -4 -4 -4 -4 -5 -5 -5 -5 -5 -5 -6 -6 -6 -6 -6 -6 -7 -7 -7 -7 -7 -7 -7 -7 -7 -7 -7 -7 -7 -7 -8 -8 -8 -7 -7 -7 -7 -7 -7 -7 -7
-4 -4 -4 -5 -5 -5 -5 -5 -6 -6 -6 -6 -6 -6 -6 -6 -7 -7 -7 -7 -8 -8 -8 -8 -8 -8 -8 -8 -8 -8 -8 -8 -8 -8 -8 -8 -8 -8 -8 -8 -8 -8 -7
-5 -5 -5 -5 -5 -6 -6 -6 -6 -6 -7 -7 -7 -7 -7 -7 -7 -7 -8 -8 -8 -8 -8 -8 -8 -8 -8 -9 -9 -9 -9 -8 -8 -8 -8 -8 -8 -8 -8 -8 -8 -8 -8
-5 -6 -6 -6 -6 -6 -6 -7 -7 -7 -7 -7 -7 -7 -8 -8 -8 -8 -8 -9 -9 -9 -8 -9 -9 -9 -9 -9 -9 -9 -9 -9 -9 -9 -9 -9 -9 -9 -9 -9 -9 -9 -9
-6 -6 -6 -7 -7 -7 -7 -7 -7 -8 -8 -8 -8 -8 -8 -8 -8 -8 -9 -9 -9 -9 -9 -9 -9 -9 -9 -9 -10 -10 -10 -10 -10 -10 -10 -9 -9 -9 -9 -9 -9 -10 -10
-7 -7 -7 -7 -7 -8 -8 -8 -8 -8 -8 -9 -9 -9 -9 -9 -9 -9 -9 -9 -9 -10 -10 -10 -10 -10 -10 -10 -10 -10 -10 -10 -10 -10 -10 -10 -10 -10 -10 -10 -10 -10 -10
-7 -7 -7 -8 -8 -8 -8 -9 -9 -9 -9 -9 -9 -9 -9 -10 -10 -10 -10 -10 -10 -10 -10 -10 -10 -10 -10 -11 -11 -11 -11 -11 -11 -11 -11 -11 -11 -11 -11 -10 -10 -10 -10
-8 -8 -8 -8 -9 -9 -9 -9 -9 -9 -10 -10 -10 -10 -10 -10 -10 -10 -10 -10 -10 -11 -11 -11 -11 -11 -11 -11 -11 -11 -11 -11 -12 -12 -12 -11 -11 -11 -11 -11 -11 -11 -11
-9 -9 -9 -9 -9 -9 -10 -10 -10 -10 -10 -10 -10 -10 -10 -10 -10 -11 -11 -11 -11 -11 -11 -11 -11 -11 -11 -11 -12 -12 -12 -12 -12 -12 -12 -12 -12 -12 -12 -12 -12 -12 -12
-9 -10 -10 -10 -10 -10 -10 -10 -10 -10 -10 -11 -11 -11 -11 -11 -11 -11 -11 -11 -11 -11 -11 -12 -12 -12 -12 -12 -12 -12 -12 -12 -12 -13 -13 -13 -13 -12 -12 -12 -12 -12 -12
-10 -10 -10 -11 -11 -11 -11 -11 -11 -11 -11 -11 -11 -11 -11 -11 -12 -12 -12 -12 -12 -12 -12 -12 -12 -12 -12 -12 -12 -13 -13 -13 -13 -13 -13 -13 -13 -13 -13 -13 -12 -12 -12
-11 -11 -11 -11 -11 -11 -11 -12 -12 -12 -12 -12 -12 -12 -12 -12 -12 -12 -12 -12 -12 -12 -12 -12 -12 -13 -13 -13 -13 -13 -13 -13 -13 -13 -13 -13 -13 -13 -13 -13 -13 -13 -13
-11 -11 -12 -12 -12 -12 -12 -12 -12 -12 -12 -12 -12 -12 -12 -12 -12 -12 -12 -13 -13 -13 -13 -13 -13 -13 -13 -13 -13 -13 -13 -13 -13 -13 -13 -13 -13 -13 -13 -13 -13 -13 -13
-12 -12 -12 -12 -13 -13 -13 -13 -13 -13 -13 -13 -13 -13 -13 -13 -13 -13 -13 -13 -13 -13 -13 -13 -13 -13 -13 -13 -13 -14 -14 -14 -14 -14 -13 -13 -13 -14 -14 -14 -13 -13 -13
-13 -13 -13 -13 -13 -13 -13 -13 -13 -13 -13 -13 -13 -13 -13 -13 -13 -13 -13 -13 -14 -14 -14 -14 -14 -14 -14 -14 -14 -14 -14 -14 -14 -14 -14 -14 -14 -14 -14 -14 -14 -14 -13
-13 -13 -13 -14 -14 -14 -14 -14 -14 -14 -14 -14 -14 -14 -14 -14 -14 -14 -14 -14 -14 -14 -14 -14 -14 -14 -14 -14 -14 -14 -14 -14 -14 -14 -14 -14 -14 -14 -14 -14 -14 -14 -14
-14 -14 -14 -14 -14 -14 -14 -14 -14 -14 -14 -14 -14 -14 -14 -14 -14 -14 -14 -14 -14 -14 -14 -14 -14 -14 -14 -14 -14 -14 -14 -14 -14 -14 -14 -14 -14 -14 -14 -14 -14 -14 -14
-14 -14 -14 -15 -15 -15 -15 -15 -15 -15 -15 -15 -15 -15 -15 -15 -15 -15 -15 -15 -15 -14 -15 -15 -15 -14 -14 -14 -14 -14 -14 -14 -14 -14 -14 -14 -14 -14 -14 -14 -14 -14 -14
-15 -15 -15 -15 -15 -15 -15 -15 -15 -15 -15 -15 -15 -15 -15 -15 -15 -15 -15 -15 -15 -15 -15 -15 -15 -15 -15 -14 -15 -14 -14 -14 -14 -14 -14 -14 -14 -14 -14 -14 -14 -14 -14
-15 -15 -15 -15 -15 -15 -16 -16 -16 -16 -16 -16 -16 -16 -16 -16 -15 -15 -15 -15 -15 -15 -15 -15 -15 -15 -15 -15 -15 -14 -14 -14 -14 -14 -14 -15 -15 -14 -14 -14 -14 -14 -14
Wind_Speed
6 5 5 5 5 4 4 4 3 3 3 3 2 2 1 1 2 2 2 2 3 3 3 3 4 4 4 4 5 5 6 6 8 8 8 8 9 8 8 10 10 10 10
5 5 5 4 4 4 4 3 3 3 3 3 2 2 2 2 2 2 3 3 3 4 4 4 4 4 5 5 5 6 6 7 8 10 9 8 9 9 9 9 9 9 10
5 5 4 4 4 4 4 3 3 3 3 3 2 2 2 2 2 3 3 3 4 4 4 4 5 5 6 5 6 6 6 6 7 8 9 8 8 8 8 8 9 9 10
5 5 5 4 4 4 4 3 3 3 3 3 2 2 2 2 3 3 3 4 4 4 5 5 5 6 6 7 6 7 7 7 7 8 8 8 8 8 8 8 8 8 8
5 4 4 4 4 4 4 3 3 3 2 2 2 2 2 2 2 3 4 4 5 5 5 5 6 7 8 8 7 7 7 7 7 8 8 8 8 7 8 8 9 8 9
4 4 4 3 3 3 3 3 3 2 2 2 2 2 2 2 3 5 5 5 5 5 6 6 6 7 8 9 10 11 10 9 9 9 9 9 10 9 9 9 9 9 9
4 4 4 4 3 3 3 3 3 2 2 2 2 2 2 3 4 5 6 5 5 6 6 6 5 6 8 7 9 10 10 12 12 11 11 11 11 10 10 11 10 11 11
4 3 3 3 3 3 3 3 2 2 2 2 2 2 3 3 5 6 6 6 6 6 6 7 7 7 7 8 8 8 9 9 10 10 10 11 11 11 10 11 11 11 12
3 3 3 3 3 3 3 3 2 2 2 2 2 2 3 3 4 5 6 5 5 6 6 7 7 7 9 10 8 9 9 9 10 12 13 14 15 15 13 9 9 9 10
2 2 2 3 3 3 3 2 2 2 2 2 2 2 3 3 4 5 6 4 5 5 6 6 8 9 10 11 9 8 9 9 9 9 10 12 12 12 12 10 9 9 9
1 1 2 2 2 2 2 2 2 2 2 2 2 2 3 4 5 6 7 4 5 5 5 5 5 9 11 11 10 8 10 10 9 9 8 8 8 8 8 9 8 8 9
2 2 1 1 1 1 2 1 1 2 2 2 2 3 3 3 4 6 7 7 7 6 6 6 6 9 11 11 10 10 12 11 7 7 8 8 8 8 8 9 10 11 11
2 1 1 1 1 1 2 2 2 2 2 2 2 3 3 3 4 6 7 8 8 7 6 8 10 11 11 9 10 11 10 7 7 7 8 8 7 8 9 9 10 11 12
1 1 1 1 1 1 1 2 2 2 3 3 3 3 4 4 4 4 5 6 7 7 7 8 9 9 8 8 8 7 6 6 7 7 8 8 8 8 8 8 8 8 8
1 0 0 1 1 1 2 2 3 3 4 4 4 4 4 5 6 8 7 5 5 6 5 5 5 5 5 5 6 6 6 6 7 7 7 7 7 7 8 7 7 8 8
0 0 1 1 1 2 2 2 3 4 5 6 6 6 6 8 10 10 10 10 10 8 6 5 5 5 6 6 6 6 6 6 7 7 7 7 8 8 8 8 8 8 9
0 1 1 1 2 2 2 3 3 3 5 6 7 8 8 9 10 10 10 10 9 7 5 5 5 6 6 6 6 7 7 7 7 7 7 8 8 8 8 8 8 8 9
1 1 2 2 2 2 3 3 3 4 4 4 5 8 9 10 10 10 10 8 6 5 5 6 6 6 6 7 7 7 7 7 7 7 8 8 8 8 8 9 8 9 9
1 1 2 2 2 3 3 3 4 4 4 5 5 5 7 9 9 9 8 5 5 6 6 6 6 6 7 7 7 7 8 8 8 8 8 8 8 8 8 9 9 11 11
2 2 3 2 3 3 3 3 4 4 5 5 5 5 5 6 5 5 5 5 6 6 6 7 7 7 7 7 7 7 8 8 8 8 8 8 8 8 9 10 9 9 9
2 2 3 3 3 3 4 4 4 4 5 5 5 6 8 6 6 6 6 6 6 7 7 7 7 7 7 7 7 8 9 9 8 8 8 8 8 8 9 9 9 9 9
2 2 3 3 4 4 4 4 5 5 5 6 6 6 9 6 6 6 6 7 7 7 7 7 7 7 7 7 8 8 9 9 9 9 9 9 8 9 9 9 9 9 9
2 3 3 3 4 5 5 4 4 5 6 6 6 6 6 6 7 7 7 7 7 8 8 8 8 8 9 10 10 9 9 10 10 9 9 9 9 9 9 9 11 11 10
3 3 4 4 4 4 5 5 5 5 6 6 6 6 7 7 7 8 8 8 8 9 9 9 10 11 13 12 11 11 12 13 13 11 12 11 10 10 9 10 10 11 10
3 4 4 4 4 5 5 6 6 6 6 7 7 7 7 8 8 8 8 8 9 9 11 11 11 12 14 15 14 14 16 17 17 14 12 10 11 11 10 11 10 10 10
4 4 4 4 5 5 6 6 6 7 7 7 7 8 8 8 8 9 8 8 9 9 10 11 12 14 16 15 16 17 19 19 19 19 14 10 10 10 10 9 11 10 10
Wind_Direction
162 162 166 169 168 167 170 174 172 172 172 178 189 197 214 235 247 254 260 268 272 277 279 278 285 286 279 274 272 267 265 267 273 283 286 292 291 287 292 290 287 288 286
159 160 164 166 164 165 169 173 174 174 178 185 191 198 211 233 244 249 258 263 268 274 278 282 286 289 286 279 272 270 270 272 275 283 289 291 289 287 286 287 290 287 285
156 158 162 166 166 168 170 174 175 177 181 184 191 202 219 236 247 255 261 266 269 273 277 281 286 286 285 285 282 276 274 276 277 281 287 291 288 288 287 285 285 287 287
158 163 168 170 173 172 171 173 175 181 186 192 206 220 234 243 248 256 263 268 271 274 277 279 281 280 282 284 283 282 281 280 278 278 281 286 287 289 289 285 286 286 288
162 168 172 170 170 169 170 170 172 181 190 196 211 227 239 245 251 263 271 274 276 278 279 279 278 281 285 284 282 283 283 280 280 280 284 286 286 287 287 287 284 286 284
166 171 170 168 167 170 171 169 172 179 188 196 210 225 242 255 267 274 281 279 279 279 281 283 282 277 280 282 283 284 283 281 282 282 284 283 285 288 293 288 284 286 285
166 169 171 172 171 173 172 172 177 185 195 206 222 235 254 270 273 274 277 280 277 278 279 282 284 284 284 284 283 282 280 279 277 278 279 281 283 286 288 287 285 283 285
160 167 171 172 175 174 175 182 187 195 205 217 233 246 263 277 281 279 279 277 275 276 278 278 281 284 283 286 286 284 284 281 280 278 279 283 286 286 281 283 285 287 288
163 171 176 177 177 179 187 196 196 202 214 229 245 254 267 281 283 285 283 279 276 279 280 279 281 283 287 289 288 288 288 288 287 283 284 285 288 290 288 284 282 283 285
177 179 179 182 184 189 201 208 210 213 223 237 253 263 270 279 286 288 286 279 279 283 284 281 277 282 289 291 288 288 288 292 294 294 289 287 287 287 284 277 276 275 282
157 150 157 173 186 192 200 211 209 214 228 242 257 272 276 281 287 289 290 285 283 284 285 287 286 289 290 293 293 289 290 297 297 294 292 291 290 286 282 279 276 272 273
135 139 143 158 178 184 188 202 207 208 225 245 264 283 286 286 290 292 293 291 294 287 283 285 288 293 294 294 294 293 296 297 292 291 289 289 289 289 286 284 281 277 272
127 134 137 152 182 199 205 210 213 222 236 255 268 280 290 292 293 293 294 293 293 290 286 286 288 291 292 290 289 293 295 290 286 285 285 286 288 290 290 285 282 280 278
125 131 150 184 220 230 234 232 235 238 243 254 267 276 285 290 293 298 297 294 290 288 287 287 289 289 287 288 291 289 284 283 284 283 287 288 290 289 287 285 285 284 284
121 144 195 223 243 255 259 259 255 254 254 256 263 273 281 285 293 301 304 299 298 294 292 285 283 286 286 286 287 288 287 285 282 282 284 286 288 288 287 288 285 283 280
123 205 257 261 266 268 271 283 279 272 273 269 274 280 282 284 295 297 296 295 296 297 290 280 281 282 284 287 288 288 286 285 284 283 281 283 284 286 287 287 284 281 280
260 268 270 272 272 273 276 279 287 289 282 279 283 288 289 293 296 298 299 297 295 295 284 282 282 283 283 285 286 286 286 286 284 280 279 280 282 283 283 284 283 282 280
290 284 285 278 278 277 276 278 278 282 287 289 293 294 296 297 299 300 300 296 288 287 280 279 279 281 281 281 282 283 284 284 281 279 278 278 278 278 280 281 281 281 283
294 295 296 292 287 284 282 281 279 278 279 286 293 298 302 302 301 300 299 287 283 282 280 278 278 278 278 279 280 281 281 280 279 278 278 278 277 276 277 277 279 282 281
289 296 302 295 291 289 286 284 283 281 281 283 286 292 301 301 294 293 287 282 281 282 281 280 279 277 276 277 279 280 279 278 278 276 276 276 276 275 275 276 277 279 279
298 299 304 297 291 286 282 282 282 282 282 285 286 289 296 291 285 285 283 280 279 281 283 283 283 281 277 276 277 277 277 277 276 275 275 276 276 274 274 275 275 275 277
293 294 297 294 292 287 285 281 280 279 281 284 289 293 296 288 283 282 282 282 281 279 280 281 281 280 279 278 277 276 275 275 275 274 274 275 274 273 273 273 274 276 277
287 293 295 291 290 292 293 287 284 282 283 285 287 289 289 286 284 283 283 284 284 283 281 279 279 279 279 277 274 272 273 274 274 275 275 275 274 273 272 272 273 276 276
279 284 286 287 286 284 287 289 287 285 285 285 285 285 285 285 285 285 286 285 285 285 283 280 277 278 281 282 281 277 274 274 275 271 270 269 272 274 272 271 272 273 274
275 276 277 278 279 280 283 284 284 285 285 284 284 284 284 284 285 287 287 287 288 287 286 285 282 282 282 282 282 282 283 283 281 277 268 265 266 267 270 271 270 273 272
277 275 274 273 274 276 278 280 282 284 284 284 283 283 283 284 284 286 287 288 289 289 288 286 284 285 286 286 285 286 288 289 288 285 274 267 267 268 269 270 272 270 273
Height
1489 1491 1493 1495 1497 1498 1499 1500 1501 1502 1503 1504 1504 1504 1504 1503 1503 1503 1502 1502 1501 1501 1500 1499 1499 1498 1498 1497 1497 1496 1496 1495 1492 1489 1489 1487 1486 1485 1483 1482 1481 1480 1479
1487 1489 1491 1492 1494 1495 1496 1497 1498 1499 1500 1500 1501 1501 1500 1500 1500 1500 1499 1498 1498 1497 1496 1496 1495 1495 1494 1494 1493 1492 1491 1490 1489 1485 1484 1483 1482 1480 1479 1477 1476 1475 1474
1485 1487 1488 1490 1491 1492 1493 1494 1495 1496 1497 1497 1497 1497 1497 1497 1497 1496 1496 1495 1494 1494 1493 1492 1492 1491 1490 1490 1489 1488 1487 1486 1485 1482 1479 1478 1477 1476 1474 1473 1471 1470 1469
1483 1485 1486 1487 1488 1489 1490 1491 1492 1493 1494 1494 1494 1494 1494 1494 1493 1493 1492 1491 1491 1490 1489 1488 1488 1487 1486 1486 1485 1484 1483 1482 1480 1478 1476 1474 1473 1471 1470 1468 1466 1465 1464
1481 1482 1483 1484 1486 1486 1487 1488 1489 1490 1491 1491 1491 1491 1491 1490 1490 1489 1489 1488 1487 1486 1485 1485 1484 1483 1482 1481 1481 1480 1479 1478 1476 1475 1472 1470 1469 1467 1466 1464 1462 1460 1458
1479 1480 1481 1482 1483 1483 1484 1485 1486 1487 1487 1488 1488 1487 1487 1487 1486 1486 1485 1485 1484 1483 1482 1481 1480 1479 1478 1477 1476 1475 1475 1474 1472 1470 1468 1466 1464 1463 1462 1460 1458 1455 1453
1477 1478 1479 1479 1480 1481 1482 1482 1483 1484 1484 1484 1484 1484 1484 1483 1483 1482 1482 1481 1480 1479 1478 1477 1476 1475 1474 1473 1471 1470 1469 1468 1467 1466 1464 1462 1460 1458 1457 1455 1453 1451 1448
1475 1476 1476 1477 1478 1478 1479 1480 1480 1481 1481 1481 1481 1481 1480 1480 1479 1479 1478 1477 1476 1475 1474 1473 1472 1471 1470 1469 1467 1465 1464 1463 1462 1461 1459 1457 1455 1453 1452 1450 1448 1445 1443
1473 1473 1474 1475 1475 1476 1476 1477 1477 1478 1478 1478 1477 1477 1477 1476 1476 1475 1474 1473 1472 1471 1470 1469 1468 1467 1465 1464 1463 1461 1459 1458 1456 1454 1453 1451 1449 1447 1446 1445 1442 1440 1437
1471 1471 1472 1472 1473 1473 1474 1474 1474 1475 1474 1474 1474 1474 1473 1473 1472 1471 1471 1470 1468 1467 1466 1464 1463 1462 1461 1460 1458 1456 1454 1452 1451 1448 1447 1445 1443 1441 1440 1439 1437 1435 1433
1469 1469 1470 1470 1470 1471 1471 1471 1471 1471 1471 1471 1471 1470 1470 1469 1468 1468 1467 1466 1465 1463 1462 1460 1459 1458 1456 1455 1454 1452 1449 1448 1446 1443 1441 1439 1437 1436 1434 1433 1431 1430 1428
1467 1467 1467 1468 1468 1468 1468 1468 1468 1468 1468 1467 1467 1467 1466 1465 1465 1464 1463 1462 1461 1459 1457 1456 1455 1453 1452 1450 1449 1447 1445 1443 1441 1438 1436 1434 1432 1430 1428 1427 1425 1424 1422
1464 1465 1465 1466 1466 1466 1466 1466 1465 1465 1465 1465 1464 1463 1463 1462 1461 1460 1459 1457 1456 1455 1453 1452 1450 1449 1447 1445 1443 1442 1440 1438 1435 1433 1431 1429 1427 1425 1423 1421 1419 1417 1414
1462 1463 1463 1463 1463 1463 1463 1463 1463 1462 1462 1462 1461 1460 1459 1458 1457 1456 1455 1453 1452 1450 1449 1447 1445 1444 1442 1440 1438 1437 1435 1433 1431 1429 1426 1424 1422 1420 1418 1415 1413 1411 1408
1460 1461 1461 1461 1461 1461 1461 1460 1460 1460 1459 1459 1458 1457 1456 1455 1454 1453 1451 1450 1448 1447 1445 1443 1441 1439 1437 1435 1434 1432 1430 1428 1426 1424 1422 1419 1417 1415 1412 1410 1408 1406 1403
1459 1459 1459 1459 1458 1458 1458 1458 1457 1457 1456 1455 1454 1454 1452 1451 1450 1448 1447 1445 1444 1442 1440 1438 1436 1435 1433 1431 1429 1427 1425 1423 1421 1419 1417 1415 1412 1410 1407 1405 1403 1401 1398
1457 1457 1457 1456 1456 1456 1455 1454 1454 1453 1453 1452 1450 1449 1448 1446 1445 1443 1442 1440 1439 1437 1435 1433 1432 1430 1428 1426 1424 1422 1420 1418 1416 1414 1412 1410 1407 1405 1403 1400 1398 1396 1393
1455 1455 1454 1454 1454 1453 1452 1451 1451 1449 1448 1447 1446 1445 1443 1442 1440 1439 1437 1436 1434 1432 1431 1429 1427 1425 1424 1422 1420 1417 1415 1413 1411 1409 1407 1404 1402 1400 1397 1395 1393 1390 1388
1453 1452 1452 1451 1451 1450 1449 1448 1447 1446 1445 1443 1442 1441 1439 1437 1436 1434 1432 1431 1429 1427 1426 1424 1422 1420 1419 1417 1415 1412 1410 1408 1406 1404 1401 1399 1397 1394 1392 1389 1387 1385 1382
1450 1450 1449 1448 1448 1447 1446 1445 1444 1442 1441 1439 1438 1436 1435 1433 1431 1429 1428 1426 1424 1423 1421 1419 1417 1415 1413 1411 1409 1407 1405 1403 1400 1398 1396 1393 1391 1389 1386 1384 1381 1379 1377
1448 1447 1447 1446 1445 1444 1442 1441 1440 1438 1437 1435 1434 1432 1431 1429 1427 1425 1423 1422 1420 1418 1416 1414 1412 1410 1408 1406 1404 1401 1399 1397 1394 1392 1390 1388 1385 1383 1381 1378 1376 1374 1371
1445 1444 1444 1443 1442 1440 1439 1437 1436 1435 1433 1431 1430 1428 1427 1425 1423 1421 1419 1417 1415 1413 1411 1408 1406 1404 1402 1400 1398 1396 1393 1391 1389 1386 1384 1381 1379 1377 1375 1372 1370 1368 1366
1443 1442 1441 1440 1438 1437 1435 1434 1432 1431 1429 1427 1426 1424 1422 1420 1418 1416 1414 1412 1409 1407 1405 1403 1400 1398 1396 1394 1392 1390 1387 1385 1383 1381 1378 1376 1373 1371 1369 1367 1364 1362 1360
1440 1439 1437 1436 1435 1433 1432 1430 1428 1427 1425 1423 1421 1419 1417 1415 1413 1411 1409 1406 1404 1402 1400 1397 1395 1393 1391 1389 1386 1384 1382 1380 1377 1375 1373 1370 1368 1365 1363 1361 1359 1356 1354
1437 1435 1434 1432 1431 1429 1428 1426 1424 1423 1421 1419 1417 1415 1413 1410 1408 1405 1403 1401 1398 1396 1394 1391 1389 1387 1385 1382 1380 1378 1376 1374 1372 1369 1367 1364 1361 1359 1357 1355 1353 1351 1349
1433 1432 1430 1429 1427 1425 1424 1422 1420 1418 1416 1414 1412 1410 1407 1405 1402 1400 1398 1395 1392 1390 1388 1385 1383 1381 1378 1376 1374 1372 1370 1368 1366 1364 1361 1359 1356 1354 1351 1349 1347 1345 1344